This demonstration page uses our WeatherBlox Daily Observations layout. Learn more.

Left ArrowRight Arrow

34.74481, -87.66753

Hourly Observations for October 24, 2016

Temp ( °F °C ) Dew Point ( °F °C ) Humidity (%) Winds ( mph kmh ) Pressure ( in mb ) Visibility ( mi km ) Precip ( " mm )
12:53 am 00:53 Clear 51 10.6 44 6.7 77 77 Calm 30.24 1024 10 16 0.00 0.00
1:53 am 01:53 Clear 48 8.9 42 5.6 80 80 SE 3 6 30.24 1024 10 16 0.00 0.00
2:53 am 02:53 Clear 47 8.3 41 5 80 80 SE 3 6 30.23 1024 10 16 0.00 0.00
3:53 am 03:53 Clear 48 8.9 43 6.1 83 83 Calm 30.23 1024 10 16 0.00 0.00
4:53 am 04:53 Clear 48 8.9 43 6.1 83 83 Calm 30.24 1024 10 16 0.00 0.00
5:53 am 05:53 Clear 46 7.8 40 4.4 79 79 Calm 30.25 1024 10 16 0.00 0.00
6:53 am 06:53 Clear 44 6.7 39 3.9 83 83 Calm 30.26 1025 10 16 0.00 0.00
7:53 am 07:53 Sunny 48 8.9 42 5.6 80 80 Calm 30.28 1025 10 16 0.00 0.00
8:53 am 08:53 Sunny 56 13.3 45 7.2 67 67 Calm 30.30 1026 10 16 0.00 0.00
9:53 am 09:53 Sunny 65 18.3 44 6.7 47 47 W 5 7 30.29 1026 10 16 0.00 0.00
10:53 am 10:53 Sunny 70 21.1 47 8.3 44 44 NW 7 11 30.28 1026 10 16 0.00 0.00
11:53 am 11:53 Sunny 71 21.7 48 8.9 44 44 W 7 11 30.28 1025 10 16 0.00 0.00
12:53 pm 12:53 Sunny 75 23.9 48 8.9 39 39 VRB 6 9 30.26 1025 10 16 0.00 0.00
1:53 pm 13:53 Sunny 78 25.6 49 9.4 36 36 VRB 5 7 30.24 1024 10 16 0.00 0.00
2:53 pm 14:53 Sunny 77 25 49 9.4 37 37 W 5 7 30.22 1023 10 16 0.00 0.00
3:53 pm 15:53 Sunny 79 26.1 49 9.4 35 35 W 5 7 30.22 1023 10 16 0.00 0.00
4:53 pm 16:53 Sunny 79 26.1 50 10 36 36 W 7 11 30.21 1023 10 16 0.00 0.00
5:53 pm 17:53 Sunny 74 23.3 50 10 43 43 W 5 7 30.22 1023 10 16 0.00 0.00
6:53 pm 18:53 Clear 68 20 50 10 53 53 Calm 30.22 1024 10 16 0.00 0.00
7:53 pm 19:53 Clear 65 18.3 51 10.6 61 61 NW 3 6 30.24 1024 10 16 0.00 0.00
8:53 pm 20:53 Clear 62 16.7 51 10.6 67 67 Calm 30.24 1024 10 16 0.00 0.00
9:53 pm 21:53 Clear 59 15 52 11.1 78 78 Calm 30.25 1024 10 16 0.00 0.00
10:53 pm 22:53 Clear 57 13.9 50 10 78 78 Calm 30.25 1024 10 16 0.00 0.00
11:53 pm 23:53 Clear 54 12.2 49 9.4 83 83 Calm 30.25 1024 10 16 0.00 0.00

Powered by AerisWeather